Washington, PA

5:58 AM EST on December 06, 2019 (GMT -0500)
Washington County

Weather History for KAFJ - October, 2019

Change the Weather History Date:

Thursday, October 17, 2019

  Actual Average Record
Temperature  
Mean Temperature 46 °F -  
Max Temperature 51 °F 58 °F 84 °F (2007)
Min Temperature 42 °F 38 °F 28 °F (2015)
Degree Days  
Heating Degree Days 18    
Moisture  
Dew Point 39 °F    
Average Humidity 78    
Maximum Humidity 93    
Minimum Humidity 56    
Precipitation  
Precipitation 0.10 in - - ()
Sea Level Pressure  
Sea Level Pressure 29.85 in    
Wind  
Wind Speed 12 mph ()    
Max Wind Speed 20 mph    
Max Gust Speed 31 mph    
Visibility 9.8 miles    
Events Rain    
Averages and records for this station are not official NWS values.
T = Trace of Precipitation, MM = Missing Value Source: Averaged Metar Reports

Daily Weather History Graph

Daily Weather History Graph

Search for Another Location

Airport or City:

Astronomy

Oct. 17, 2019 Rise Set
Actual Time 7:33 AM EDT 6:38 PM EDT
Civil Twilight 7:06 AM EDT 7:06 PM EDT
Nautical Twilight 6:34 AM EDT 7:37 PM EDT
Astronomical Twilight 6:03 AM EDT 8:09 PM EDT
Moon 9:09 PM EDT (10/17) 11:03 AM EDT (10/17)
Length of Visible Light 11h 59m
Length of Day
11h 05m
Waning Gibbous, 87% of the Moon is Illuminated
Oct 17
Waning Gibbous
Oct 21
Last Quarter
Oct 27
New
Nov 4
First Quarter
Nov 12
Full

Hourly Weather History & Observations

Time (EDT) Temp. Windchill Dew Point Humidity Pressure Visibility Wind Dir Wind Speed Gust Speed Precip Events Conditions
12:35 AM 46.4 °F 39.5 °F 42.8 °F 87% 29.74 in 10.0 mi West 17.3 mph 23.0 mph N/A   Overcast
12:56 AM 46.0 °F 38.5 °F 43.0 °F 89% 29.75 in 9.0 mi West 19.6 mph 23.0 mph 0.01 in Rain Light Rain
1:09 AM 44.6 °F 39.2 °F 42.8 °F 93% 29.75 in 7.0 mi WNW 10.4 mph - 0.02 in Rain Light Rain
1:56 AM 45.0 °F 38.9 °F 42.1 °F 90% 29.75 in 10.0 mi West 12.7 mph 21.9 mph 0.03 in   Overcast
2:56 AM 45.0 °F 40.1 °F 42.1 °F 90% 29.76 in 9.0 mi WNW 9.2 mph - 0.00 in Rain Light Rain
3:45 AM 44.6 °F 39.7 °F 42.8 °F 93% 29.74 in 9.0 mi WNW 9.2 mph - 0.04 in Rain Light Rain
3:56 AM 44.1 °F 37.7 °F 42.1 °F 93% 29.75 in 9.0 mi WNW 12.7 mph - 0.05 in Rain Light Rain
4:56 AM 44.1 °F 38.6 °F 41.0 °F 89% 29.76 in 10.0 mi West 10.4 mph 18.4 mph 0.00 in   Overcast
5:56 AM 43.0 °F 35.4 °F 41.0 °F 93% 29.78 in 10.0 mi West 16.1 mph 20.7 mph 0.01 in Rain Light Rain
6:56 AM 43.0 °F 36.0 °F 39.9 °F 89% 29.80 in 10.0 mi West 13.8 mph - 0.00 in Rain Light Rain
7:56 AM 42.1 °F 33.9 °F 39.0 °F 89% 29.82 in 10.0 mi West 17.3 mph 23.0 mph 0.00 in Rain Light Rain
8:56 AM 42.1 °F 35.2 °F 39.0 °F 89% 29.85 in 10.0 mi West 12.7 mph - 0.00 in Rain Light Rain
9:56 AM 42.1 °F 34.9 °F 39.0 °F 89% 29.86 in 10.0 mi West 13.8 mph - 0.00 in Rain Light Rain
10:14 AM 42.8 °F 35.8 °F 39.2 °F 87% 29.84 in 10.0 mi West 13.8 mph 20.7 mph 0.00 in Rain Light Rain
10:56 AM 44.1 °F 37.7 °F 39.9 °F 85% 29.86 in 10.0 mi West 12.7 mph 19.6 mph 0.00 in Rain Light Rain
11:38 AM 46.4 °F 39.2 °F 39.2 °F 76% 29.85 in 10.0 mi WNW 18.4 mph - 0.00 in   Overcast
11:56 AM 46.9 °F - 39.0 °F 74% 29.86 in 10.0 mi West 15.0 mph 19.6 mph 0.00 in   Overcast
12:56 PM 48.9 °F - 39.0 °F 69% 29.86 in 10.0 mi West 19.6 mph 24.2 mph N/A   Overcast
1:56 PM 51.1 °F - 37.0 °F 59% 29.86 in 10.0 mi West 15.0 mph 31.1 mph N/A   Overcast
2:56 PM 51.1 °F - 36.0 °F 56% 29.86 in 10.0 mi WNW 17.3 mph 27.6 mph N/A   Mostly Cloudy
3:56 PM 50.0 °F - 36.0 °F 59% 29.88 in 10.0 mi WNW 16.1 mph 24.2 mph N/A   Mostly Cloudy
4:56 PM 51.1 °F - 36.0 °F 56% 29.89 in 10.0 mi WNW 10.4 mph - N/A   Overcast
5:56 PM 48.9 °F - 35.1 °F 59% 29.90 in 10.0 mi WNW 11.5 mph 18.4 mph N/A   Mostly Cloudy
6:56 PM 48.0 °F - 35.1 °F 61% 29.93 in 10.0 mi WNW 6.9 mph - N/A   Overcast
7:56 PM 46.9 °F - 36.0 °F 66% 29.95 in 10.0 mi WNW 6.9 mph - N/A   Overcast
8:56 PM 46.0 °F 43.1 °F 36.0 °F 68% 29.96 in 10.0 mi NW 5.8 mph - N/A   Overcast
9:56 PM 46.0 °F 42.5 °F 36.0 °F 68% 29.99 in 10.0 mi WNW 6.9 mph - N/A   Overcast
10:56 PM 46.0 °F 43.9 °F 37.0 °F 71% 29.99 in 10.0 mi West 4.6 mph - N/A   Overcast
11:56 PM 45.0 °F 41.8 °F 37.0 °F 74% 29.99 in 10.0 mi West 5.8 mph - N/A   Overcast